Location: Trois-Rivi�res
(46.3500°N, 72.5500°W)
Time: 23:41:19
(UTC-04:00)

Daily predictions for brighter satellites

Satellite Brightness Start Highest point End
(mag) Time Altitude Azimuth Time Altitude Azimuth Time Altitude Azimuth
Cosmos 1727 Rocket 4.4 21:16:45 10° SSW 21:23:03 73° W 21:29:26 10° N
Cosmos 1408 Rocket 4.2 21:20:01 10° SSE 21:24:00 38° E 21:28:01 10° NNE
Cosmos 2237 Rocket 4.2 21:21:38 10° NW 21:26:01 24° WSW 21:30:23 10° SSW
ERBS 3.0 21:26:07 10° NW 21:29:25 48° NNE 21:32:42 10° ESE
Cosmos 2221 3.0 21:27:36 10° NNW 21:31:58 63° W 21:36:18 10° S
Cosmos 1939 Rocket 4.4 21:28:20 10° SSW 21:32:02 35° W 21:35:49 10° NNW
Cosmos 1340 Rocket 3.9 21:30:30 10° SSW 21:34:24 49° WNW 21:38:23 10° N
Cosmos 1603 3.8 21:29:02 10° NNW 21:34:43 69° ENE 21:40:19 10° SE
CZ-4B DEB 4.3 21:33:10 10° SSW 21:35:52 32° W 21:38:36 10° NNW
Meteor 1-29 3.7 21:33:45 10° N 21:37:08 56° WNW 21:40:31 10° SSW
Tiangong 1 1.3 21:36:50 10° WSW 21:39:29 38° S 21:42:06 10° ESE
Cosmos 1814 Rocket 4.4 21:34:19 10° NNW 21:39:34 53° ENE 21:44:41 10° SE
Cosmos 371 Rocket 3.7 21:37:54 10° NNW 21:42:37 51° ENE 21:47:08 11° SE
Cosmos 2227 Rocket 4.2 21:38:51 10° WSW 21:43:54 33° NW 21:49:00 10° NNE
Cosmos 1674 2.9 21:41:31 10° SSW 21:45:16 74° W 21:49:02 10° N
Cosmos 2016 Rocket 4.0 21:39:46 10° N 21:46:05 76° E 21:52:15 10° SSE
MetOp-A 4.2 21:41:26 10° SSE 21:46:47 83° WSW 21:52:11 10° NNW
ARGOS 3.2 21:43:18 10° SSE 21:48:43 81° ENE 21:54:09 10° NNW
Cosmos 841 Rocket 4.3 21:44:14 10° N 21:49:12 41° ENE 21:53:48 12° SE
Okean 3 Rocket 4.4 21:44:52 10° SSW 21:49:16 55° WNW 21:53:41 10° N
Cosmos 1943 3.7 21:44:19 10° NNW 21:49:49 49° ENE 21:54:57 12° SE
Cosmos 1455 4.4 21:48:04 10° NE 21:49:59 13° ENE 21:51:55 10° E
Lacrosse 5 1.9 21:45:38 10° NW 21:50:42 75° SW 21:55:19 12° SE
Cosmos 1763 Rocket 3.9 21:45:57 10° NNW 21:50:58 51° ENE 21:55:27 12° SE
CZ-3B R/B 4.4 21:47:41 10° SSW 21:51:03 60° SE 22:03:12 10° NE
Cosmos 1908 4.2 21:47:26 10° NNW 21:51:11 46° W 21:54:52 10° SSW
SL-16 R/B 3.6 21:46:10 10° NW 21:51:14 34° WSW 21:56:16 10° SSW
SPOT 5 3.0 21:47:17 10° SSE 21:52:09 80° ENE 21:57:19 10° NNW
SPOT 1/Viking Rocket 3.6 21:54:30 11° SSE 21:59:25 70° ENE 22:04:34 10° N
Cosmos 1766 Rocket 3.6 21:56:58 10° S 22:01:18 82° W 22:05:41 10° N
KORONAS-FOTON 4.1 21:58:42 10° SSW 22:02:29 69° W 22:06:17 10° N
Cosmos 1242 Rocket 4.1 21:59:12 10° NNW 22:02:36 34° W 22:05:59 10° SSW
Abrixas rocket 2.2 22:00:23 10° WNW 22:03:36 66° SSW 22:06:04 16° ESE
Cosmos 1328 Rocket 3.5 21:59:44 10° N 22:04:06 72° E 22:07:53 13° SSE
Cosmos 1515 Rocket 3.7 22:05:43 10° N 22:10:01 60° ENE 22:13:24 16° SSE
Cosmos 2233 Rocket 4.3 22:04:19 10° N 22:10:24 53° ENE 22:15:25 15° SSE
Cosmos 1151 Rocket 3.5 22:06:16 10° N 22:10:33 48° ENE 22:13:43 17° SSE
USA 245 3.6 22:07:27 11° S 22:10:43 63° W 22:15:05 10° NNW
Landsat 7 4.0 22:08:35 15° SSE 22:12:28 62° ENE 22:17:12 10° N
USA 234 3.3 22:08:25 10° ENE 22:14:51 55° SE 22:21:14 10° SSW
IGS 5A 4.2 22:11:57 16° SE 22:14:52 40° ENE 22:18:48 10° N
H-2A R/B 2.9 22:13:53 16° SE 22:16:52 36° ENE 22:20:45 10° N
Cosmos 1743 Rocket 3.5 22:13:15 11° S 22:17:23 68° E 22:21:42 10° NNE
Cosmos 1867 4.3 22:12:32 10° SW 22:17:55 59° NW 22:23:20 10° NNE
Cosmos 2228 Rocket 3.2 22:13:35 10° N 22:18:13 88° W 22:22:04 14° S
Cosmos 1703 4.1 22:22:24 20° SE 22:24:33 34° E 22:28:12 10° NNE
SL-08 RB Rocket 4.3 22:21:53 11° S 22:26:09 54° W 22:30:43 10° NNW
Terra 2.0 22:24:00 18° SSE 22:27:25 61° ENE 22:32:08 10° N
Meteor 1-11 4.4 22:23:46 13° S 22:29:00 63° E 22:34:45 10° NNE
Nimbus 7 Rocket 4.4 22:24:17 10° NNE 22:30:21 88° ESE 22:36:20 10° SSW
H-2A ROCKET BODY 4.2 22:30:04 10° S 22:34:30 20° SE 22:45:02 10° ESE
Meteor 1-27 4.3 22:35:39 10° N 22:41:31 90° WSW 22:45:45 19° S
Cosmos 2123 Rocket 4.4 22:37:33 10° SSW 22:43:40 65° WNW 22:49:52 10° N
H-2A R/B 2.7 22:39:05 13° S 22:43:41 53° W 22:49:01 10° NNW
Cosmos 304 Rocket 3.9 22:39:14 10° NNW 22:44:01 63° ENE 22:46:52 23° SE
Cosmos 220 Rocket 4.4 22:40:53 10° SSW 22:45:16 66° WNW 22:49:39 10° NNE
Cosmos 1626 2.1 22:44:38 26° S 22:46:35 63° E 22:50:17 10° NNE
Cosmos 2058 2.9 22:44:53 20° S 22:47:43 79° E 22:51:58 10° NNE
Cosmos 1726 4.1 22:45:49 10° NW 22:48:47 23° W 22:51:45 10° SW
CZ-4B R/B 4.2 22:43:57 10° NNE 22:48:52 39° E 22:51:29 23° SSE
Cosmos 540 Rocket 3.6 22:45:23 10° NNW 22:50:31 64° ENE 22:53:35 24° SE
Cosmos 2263 Rocket 2.1 22:46:57 10° SSW 22:52:25 71° ESE 22:58:00 10° NNE
Cosmos 1300 4.4 22:49:12 10° NNW 22:52:32 29° W 22:55:37 11° SSW
RESURS DK-1 4.3 22:50:59 10° WNW 22:54:07 21° WSW 22:56:54 12° SSW
Cosmos 2285 Rocket 4.0 22:51:12 10° NNW 22:57:34 83° ENE 23:01:42 24° SSE
ATLAS 5 CENTAUR R/B 4.2 22:53:35 10° W 22:57:44 27° NNW 23:02:16 10° NNE
Spot 4 4.0 22:55:05 25° SE 22:57:51 63° ENE 23:02:41 10° N
COSMOS 2406 4.3 22:53:34 10° NNW 22:58:45 35° NE 23:02:50 15° ESE
CZ-3A R/B 2.6 22:58:30 10° NW 22:58:41 13° NNW 22:58:41 13° NNW
Sich 1 4.0 22:59:55 25° ESE 23:01:16 30° E 23:05:01 10° NNE
ERBS 3.9 23:03:12 10° WNW 23:05:52 22° SW 23:06:28 20° SW
deb Chang Zheng 4 3.5 23:02:45 10° NNE 23:07:08 74° ESE 23:09:31 27° S
PSLV R/B 2.9 23:09:21 53° S 23:09:55 78° WSW 23:12:47 10° NNW
Cosmos 1707 Rocket 3.8 23:07:32 10° N 23:11:59 60° E 23:13:54 32° SE
ALOS 2 4.3 23:10:54 16° ESE 23:13:06 22° ENE 23:16:30 10° NNE
DELTA 2 DEB (DPAF) 4.2 23:11:06 31° SSE 23:13:11 72° ENE 23:17:39 10° N
Cosmos 2151 3.8 23:11:00 14° SSW 23:14:26 47° WNW 23:18:38 10° N
Tiangong 1 2.9 23:12:22 10° WSW 23:13:24 17° WSW 23:13:24 17° WSW
CZ-2C R/B 4.3 23:12:52 19° ESE 23:16:18 37° ENE 23:21:25 10° N
Cosmos 1354 Rocket 4.0 23:16:06 18° SSW 23:20:06 87° WNW 23:25:23 10° NNE
Cosmos 1455 2.7 23:22:16 10° NNW 23:26:03 52° W 23:27:33 31° SSW
Cosmos 1844 Rocket 3.6 23:24:43 26° SE 23:26:15 30° ESE 23:31:04 10° NE
Cosmos 1464 Rocket 3.9 23:23:05 10° N 23:29:16 89° W 23:32:45 28° S
CZ-4C R/B 2.7 23:28:14 31° SSE 23:29:53 39° ESE 23:35:19 10° NE
Cosmos 1666 Rocket 3.7 23:28:28 36° SSE 23:30:06 63° E 23:34:31 10° NNE
Lacrosse 5 3.9 23:30:16 10° W 23:32:54 14° WSW 23:34:30 13° SW
Cosmos 1869 3.2 23:32:47 10° N 23:36:45 82° W 23:37:55 44° S
Cosmos 1805 Rocket 3.7 23:39:13 30° SSW 23:41:15 67° W 23:45:35 10° N
Cosmos 1633 Rocket 2.9 23:44:55 42° S 23:46:19 77° E 23:50:42 10° NNE
Cosmos 1315 Rocket 4.4 23:46:28 21° E 23:46:49 21° E 23:49:50 10° NE
CZ-4C R/B 3.9 23:46:43 35° SSW 23:48:14 55° W 23:52:35 10° NNW
SL-24 R/B - RUBIN 2 4.1 23:42:48 10° NW 23:48:28 75° NE 23:50:52 32° SE
Cosmos 1400 Rocket 3.4 23:49:33 40° SE 23:50:18 45° E 23:54:17 10° NNE
H-2A R/B 3.8 23:51:00 17° SW 23:52:57 23° W 23:56:23 10° NW
SME Rocket 3.7 23:52:50 34° SSW 23:54:07 47° W 23:58:42 10° NNW
